GW5028 Weather Reports


time (UTC)temp
C
wind
direction
speed
KPH
gust
KPH
rain 1hr
cm
rain 24hr
cm
rain mn
cm
humidity
%
barometer
mb
20260504150859 20 255 6.4 11.3 0.00 0.00 0.00 45 1017.8
20260504150356 19 207 9.7 11.3 0.00 0.00 0.00 44 1017.9
20260504141326 16 280 6.4 9.7 0.00 0.00 0.00 53 1017.7
20260504140823 16 184 4.8 4.8 0.00 0.00 0.00 56 1017.8
20260504140318 15 274 6.4 9.7 0.00 0.00 0.00 55 1017.7
20260504130748 11 204 3.2 3.2 0.00 0.00 0.00 67 1017.8
20260504130243 11 168 0.0 0.0 0.00 0.00 0.00 64 1017.8
20260504120207 5 165 1.6 1.6 0.00 0.00 0.00 95 1017.7
20260504110635 2 140 0.0 1.6 0.00 0.00 0.00 99 1017.7
20260504110131 2 169 0.0 0.0 0.00 0.00 0.00 98 1017.6
20260504100557 2 150 0.0 0.0 0.00 0.00 0.00 97 1017.4
20260504081950 3 153 0.0 0.0 0.00 0.00 0.00 96 1017.6
20260504081447 3 156 0.0 0.0 0.00 0.00 0.00 95 1017.6
20260504080943 3 150 0.0 0.0 0.00 0.00 0.00 95 1017.6
20260504080440 3 150 0.0 0.0 0.00 0.00 0.00 95 1017.5
20260504070408 4 149 0.0 0.0 0.00 0.00 0.00 93 1017.3
20260504050253 5 148 0.0 0.0 0.00 0.00 0.00 85 1018.0
20260504045745 5 151 0.0 0.0 0.00 0.00 0.00 86 1018.0
20260504045244 5 149 0.0 0.0 0.00 0.00 0.00 85 1017.8
20260504044742 5 149 0.0 0.0 0.00 0.00 0.00 85 1018.0
20260504044240 5 149 0.0 0.0 0.00 0.00 0.00 85 1017.7
20260504043737 6 149 0.0 0.0 0.00 0.00 0.00 84 1017.8
20260504043233 6 149 0.0 0.0 0.00 0.00 0.00 84 1017.7
20260504042731 6 149 0.0 0.0 0.00 0.00 0.00 82 1017.7
20260504042227 6 147 0.0 0.0 0.00 0.00 0.00 82 1017.9
20260504041724 6 149 0.0 0.0 0.00 0.00 0.00 83 1017.5
20260504041220 6 150 0.0 0.0 0.00 0.00 0.00 84 1017.7
20260504040716 6 149 0.0 0.0 0.00 0.00 0.00 83 1017.5
20260504040213 6 150 0.0 0.0 0.00 0.00 0.00 82 1017.6
20260504035709 6 138 0.0 0.0 0.00 0.00 0.00 82 1017.7
20260504035207 6 151 0.0 0.0 0.00 0.00 0.00 83 1017.6
20260504034704 6 149 0.0 0.0 0.00 0.00 0.00 82 1017.8
20260504034201 6 157 0.0 0.0 0.00 0.00 0.00 82 1017.8
20260504033659 6 151 0.0 0.0 0.00 0.00 0.00 82 1017.7
20260504033156 6 169 0.0 0.0 0.00 0.00 0.00 82 1017.7
20260504032653 6 145 0.0 0.0 0.00 0.00 0.00 82 1017.5
20260504032150 6 152 0.0 0.0 0.00 0.00 0.00 81 1017.6
20260504031647 6 149 0.0 0.0 0.00 0.00 0.00 79 1017.7
20260504031143 7 149 0.0 0.0 0.00 0.00 0.00 79 1017.6
20260504030640 7 149 0.0 0.0 0.00 0.00 0.00 78 1017.6
20260504030137 7 149 0.0 0.0 0.00 0.00 0.00 77 1017.5
20260504025633 7 149 0.0 0.0 0.00 0.00 0.00 77 1017.7
20260504025130 7 149 0.0 0.0 0.00 0.00 0.00 76 1017.5
20260504024628 7 149 0.0 0.0 0.00 0.00 0.00 75 1017.6
20260504024124 7 150 0.0 0.0 0.00 0.00 0.00 75 1017.7
20260504023621 7 149 0.0 0.0 0.00 0.00 0.00 76 1017.6
20260504023117 7 149 0.0 0.0 0.00 0.00 0.00 76 1017.5
20260504022613 7 150 0.0 0.0 0.00 0.00 0.00 76 1017.6
20260504022109 7 149 0.0 0.0 0.00 0.00 0.00 76 1017.4
20260504021608 7 149 0.0 0.0 0.00 0.00 0.00 74 1017.6
20260504021104 8 153 0.0 0.0 0.00 0.00 0.00 73 1017.4
20260504020601 8 149 0.0 0.0 0.00 0.00 0.00 71 1017.3
20260504020057 8 149 0.0 0.0 0.00 0.00 0.00 68 1017.2
20260504015554 8 149 0.0 0.0 0.00 0.00 0.00 68 1017.2
20260504015049 8 148 0.0 0.0 0.00 0.00 0.00 67 1017.0
20260504014546 9 149 0.0 0.0 0.00 0.00 0.00 67 1017.1
20260504014043 9 147 0.0 0.0 0.00 0.00 0.00 65 1017.1
20260504013541 9 149 0.0 0.0 0.00 0.00 0.00 65 1016.9
20260504013038 9 147 0.0 0.0 0.00 0.00 0.00 66 1016.9
20260504012535 9 149 0.0 0.0 0.00 0.00 0.00 65 1016.8
20260504012033 9 147 0.0 0.0 0.00 0.00 0.00 65 1016.7
20260504011529 10 147 0.0 0.0 0.00 0.00 0.00 65 1016.6
20260504011025 10 147 0.0 0.0 0.00 0.00 0.00 64 1016.7
20260504010521 10 147 0.0 0.0 0.00 0.00 0.00 63 1016.8
20260504010017 10 147 0.0 0.0 0.00 0.00 0.00 64 1016.6
20260504005514 10 147 0.0 0.0 0.00 0.00 0.00 62 1016.6
20260504005012 10 145 0.0 0.0 0.00 0.00 0.00 61 1016.6
20260504004509 11 147 0.0 0.0 0.00 0.00 0.00 61 1016.8
20260504004006 11 141 0.0 0.0 0.00 0.00 0.00 59 1016.6
20260504003502 11 149 0.0 0.0 0.00 0.00 0.00 57 1016.4
20260504002959 11 148 0.0 0.0 0.00 0.00 0.00 56 1016.6
20260504002456 12 146 0.0 0.0 0.00 0.00 0.00 55 1016.5
20260504001953 12 147 0.0 0.0 0.00 0.00 0.00 54 1016.5
20260504001451 12 147 0.0 0.0 0.00 0.00 0.00 52 1016.4
20260504000947 13 146 0.0 0.0 0.00 0.00 0.00 51 1016.3
20260504000444 13 147 0.0 0.0 0.00 0.00 0.00 51 1016.3
20260503235942 15 140 0.0 1.6 0.00 0.00 0.00 49 1016.3
20260503235439 15 148 0.0 0.0 0.00 0.00 0.00 44 1016.1
20260503234936 16 151 0.0 1.6 0.00 0.00 0.00 45 1016.1
20260503234434 16 152 0.0 1.6 0.00 0.00 0.00 42 1016.2
20260503233932 16 151 1.6 3.2 0.00 0.00 0.00 39 1016.2
20260503233428 17 148 0.0 1.6 0.00 0.00 0.00 37 1016.1
20260503232925 17 164 1.6 1.6 0.00 0.00 0.00 37 1016.2
20260503232422 17 149 0.0 3.2 0.00 0.00 0.00 36 1016.2
20260503231920 17 162 1.6 3.2 0.00 0.00 0.00 35 1016.4
20260503231417 18 165 3.2 4.8 0.00 0.00 0.00 35 1016.3
20260503230913 18 152 0.0 1.6 0.00 0.00 0.00 34 1016.4
20260503230409 18 253 3.2 4.8 0.00 0.00 0.00 35 1016.2
20260503225908 18 160 3.2 3.2 0.00 0.00 0.00 34 1016.2
20260503225403 18 137 3.2 9.7 0.00 0.00 0.00 35 1016.5
20260503224859 18 224 6.4 9.7 0.00 0.00 0.00 35 1016.2
20260503224357 18 190 6.4 11.3 0.00 0.00 0.00 34 1016.4
20260503223854 18 162 3.2 6.4 0.00 0.00 0.00 34 1016.3
20260503223352 18 217 4.8 12.9 0.00 0.00 0.00 35 1016.3
20260503222847 19 189 3.2 12.9 0.00 0.00 0.00 33 1016.3
20260503222346 19 208 3.2 4.8 0.00 0.00 0.00 34 1016.4
20260503221844 18 160 1.6 9.7 0.00 0.00 0.00 34 1016.5
20260503221343 19 174 4.8 6.4 0.00 0.00 0.00 32 1016.5
20260503220838 19 135 0.0 4.8 0.00 0.00 0.00 31 1016.5
20260503220335 18 146 1.6 6.4 0.00 0.00 0.00 32 1016.6
20260503215832 18 152 3.2 9.7 0.00 0.00 0.00 31 1016.6
20260503215329 20 203 1.6 6.4 0.00 0.00 0.00 32 1016.6
20260503214827 20 176 1.6 4.8 0.00 0.00 0.00 30 1016.6
20260503214324 19 187 3.2 3.2 0.00 0.00 0.00 29 1016.7
20260503213821 19 172 4.8 6.4 0.00 0.00 0.00 28 1016.9
20260503213319 19 156 3.2 4.8 0.00 0.00 0.00 33 1016.8
20260503212815 18 249 4.8 9.7 0.00 0.00 0.00 31 1016.8
20260503212313 19 204 4.8 9.7 0.00 0.00 0.00 30 1016.8
20260503211810 18 220 3.2 9.7 0.00 0.00 0.00 30 1017.0
20260503211307 19 186 1.6 11.3 0.00 0.00 0.00 31 1017.1
20260503210807 19 278 6.4 16.1 0.00 0.00 0.00 31 1017.0
20260503210305 20 337 3.2 11.3 0.00 0.00 0.00 27 1016.8
20260503205800 20 103 3.2 6.4 0.00 0.00 0.00 26 1017.1
20260503205256 19 144 3.2 11.3 0.00 0.00 0.00 28 1017.0
20260503204753 20 168 3.2 4.8 0.00 0.00 0.00 27 1016.9
20260503204251 19 176 3.2 11.3 0.00 0.00 0.00 26 1017.0
20260503203748 19 281 8.0 11.3 0.00 0.00 0.00 28 1017.4
20260503203245 20 235 1.6 6.4 0.00 0.00 0.00 29 1017.1
20260503202742 19 153 0.0 9.7 0.00 0.00 0.00 27 1017.2
20260503202240 19 170 3.2 4.8 0.00 0.00 0.00 29 1017.3
20260503201738 19 276 4.8 11.3 0.00 0.00 0.00 29 1017.5
20260503201235 18 167 4.8 6.4 0.00 0.00 0.00 29 1017.3
20260503200731 18 303 8.0 11.3 0.00 0.00 0.00 31 1017.6
20260503200228 19 345 8.0 9.7 0.00 0.00 0.00 30 1017.8
20260503195724 18 195 6.4 11.3 0.00 0.00 0.00 31 1017.8
20260503195221 18 153 3.2 4.8 0.00 0.00 0.00 29 1017.8
20260503194719 17 168 1.6 11.3 0.00 0.00 0.00 28 1018.0
20260503194215 18 62 6.4 11.3 0.00 0.00 0.00 29 1018.0
20260503193711 18 233 12.9 16.1 0.00 0.00 0.00 30 1018.1
20260503193207 18 303 6.4 9.7 0.00 0.00 0.00 30 1017.9
20260503192703 18 220 6.4 12.9 0.00 0.00 0.00 29 1018.2
20260503192158 17 152 0.0 6.4 0.00 0.00 0.00 30 1018.1
20260503191655 18 220 8.0 9.7 0.00 0.00 0.00 31 1018.2
20260503191152 17 163 3.2 11.3 0.00 0.00 0.00 28 1018.4
20260503190649 17 275 6.4 14.5 0.00 0.00 0.00 32 1018.4
20260503190146 18 250 3.2 6.4 0.00 0.00 0.00 31 1018.5
20260503185643 18 303 4.8 9.7 0.00 0.00 0.00 32 1018.4
20260503185138 17 339 9.7 11.3 0.00 0.00 0.00 31 1018.5
20260503184633 17 160 1.6 6.4 0.00 0.00 0.00 33 1018.9
20260503184130 17 290 8.0 12.9 0.00 0.00 0.00 32 1018.6
20260503183626 17 157 0.0 9.7 0.00 0.00 0.00 33 1018.8
20260503183124 16 254 4.8 11.3 0.00 0.00 0.00 33 1018.9
20260503182622 17 219 6.4 9.7 0.00 0.00 0.00 30 1018.9
20260503182120 16 223 9.7 16.1 0.00 0.00 0.00 32 1019.0
20260503181616 16 267 4.8 6.4 0.00 0.00 0.00 34 1019.1
20260503181113 17 336 8.0 11.3 0.00 0.00 0.00 30 1019.1
20260503180610 17 260 4.8 12.9 0.00 0.00 0.00 29 1019.4
20260503180108 16 220 6.4 16.1 0.00 0.00 0.00 31 1019.2
20260503175605 16 127 0.0 11.3 0.00 0.00 0.00 30 1019.3
20260503175102 17 289 4.8 9.7 0.00 0.00 0.00 32 1019.3
20260503174559 16 142 3.2 20.9 0.00 0.00 0.00 32 1019.4
20260503174055 16 258 8.0 11.3 0.00 0.00 0.00 34 1019.5
20260503173550 16 198 6.4 11.3 0.00 0.00 0.00 33 1019.6
20260503173047 16 199 1.6 4.8 0.00 0.00 0.00 33 1019.6
20260503172544 15 218 3.2 6.4 0.00 0.00 0.00 33 1019.6
20260503172042 16 303 9.7 14.5 0.00 0.00 0.00 34 1019.6
20260503171538 16 46 6.4 9.7 0.00 0.00 0.00 33 1019.5
20260503171035 16 138 1.6 6.4 0.00 0.00 0.00 31 1019.6
20260503170531 15 210 4.8 6.4 0.00 0.00 0.00 33 1019.9